sat.trackr.live / text

‹ back to catalog

ONEWEB-0324

NORAD 49193 · 2021-083H

PAYLOAD ACTIVE UNKNOWN

§ Identity

Operator
Country
UK
Launch date
2021-09-14
Launch site
TYMSC
Launch vehicle
Mass (kg)
RCS (m²)

Purposes: comms

External: N2YO · Heavens-Above · Gunter

§ Orbital elements

Epoch: 2026-09-20T03:10:56.606304Z

Period
109.20 min
Inclination
87.9165°
Eccentricity
0.0001765
Mean motion
13.18687053 rev/d
Perigee alt
1,188.4 km
Apogee alt
1,191.1 km
Semi-major
7,567.9 km
B*
-9.2989e-6
RAAN
316.5897°
Arg perigee
100.4987°
Mean anomaly
259.6344°
Rev number
24,251

§ Raw data

ONEWEB-03241 49193U 21083H   26263.13259961  .00000009  00000+0 -92989-5 0  99962 49193  87.9165 316.5897 0001765 100.4987 259.6344 13.18687053242510

JSON: /api/v1/satellites/49193 · /tle

For live sub-satellite position, see the globe view (requires WebGL).

§ Visibility from observer

Set your observer location to see the next 7 days of passes ≥ 10°. The values pass through the URL so the page stays shareable.

No JS? Fill the form by hand. The geolocation button needs JavaScript.